Regional Weather Roundup
Issued by NWS

Home | Current Version | Previous Version | Text Only | Print | Product List | Glossary Off
Versions: 1 2 3 4 5 6 7 8 9 10 11 12 13 14 15 16 17 18 19 20 21 22 23 24 25 26 27 28 29 30 31 32 33 34 35 36 37 38 39 40 41 42 43 44 45 46 47 48 49 50

000
ASUS45 KCYS 181110
RWRWY

WYOMING REGIONAL WEATHER ROUNDUP
NATIONAL WEATHER SERVICE CHEYENNE WY
500 AM MDT THU SEP 18 2014

NOTE:  "FAIR" INDICATES FEW OR NO CLOUDS BELOW 12,000 FEET
WITH NO SIGNIFICANT WEATHER AND/OR OBSTRUCTIONS TO VISIBILITY.

WYZ001-181200-
YELLOWSTONE NATIONAL PARK

CITY           SKY/WX    TMP DP  RH WIND       PRES   REMARKS
LK YELLOWSTONE   N/A     41  38  89 CALM      30.15F
W YELLOWSTONE  NOT AVBL

$$
WYZ002>013-054>058-071-098>099-181200-
NORTHERN WYOMING

CITY           SKY/WX    TMP DP  RH WIND       PRES   REMARKS
JACKSON        MOCLDY    46  41  81 NE7       30.07F
CODY             N/A    N/A N/A N/A MISG        N/A
GREYBULL       PTCLDY    54  47  77 SE5       29.89F
WORLAND        CLEAR     52  45  77 CALM      29.90F
SHERIDAN       CLEAR     54  46  74 NE6       29.85F
BUFFALO        CLEAR     66  38  35 SE5       29.94F
GILLETTE       MOCLDY    61  50  67 S17       29.90F
HULETT         FAIR      55  46  71 MISG      29.92
NEWCASTLE      FAIR      52  45  76 CALM      29.95

$$
WYZ014>020-022>026-101>103-181200-
CENTRAL WYOMING

CITY           SKY/WX    TMP DP  RH WIND       PRES   REMARKS
BIG PINEY      MOCLDY    41  37  86 E3        30.14S
PINEDALE       PTSUNNY   37  36  93 NW6       30.14F WCI  33
DUBOIS         FAIR      45  36  70 NW12      30.12F
LANDER         PTCLDY    53  39  59 E3        30.00F
RIVERTON       PTCLDY    53  41  63 NW10      30.01F
CASPER         CLEAR     52  37  56 SW5       30.01S
DOUGLAS        CLEAR     44  40  85 CALM      30.00S

$$
WYZ021-027>030-104>119-181200-
SOUTHERN WYOMING

CITY           SKY/WX    TMP DP  RH WIND       PRES   REMARKS
EVANSTON       PTCLDY    59  36  42 S5        30.12S
KEMMERER       MOSUNNY   46  37  71 N12       30.13F
FORT BRIDGER   FAIR      62  36  38 NW5       30.14S
ROCK SPRINGS   PTCLDY    53  34  48 SE7       30.11S
DIXON          FAIR      49  39  68 CALM      30.15S
RAWLINS        CLEAR     44  36  73 CALM      30.13S
SARATOGA       FAIR      52  37  58 S7        30.16S
LARAMIE        CLEAR     41  35  79 S9        30.17S
CHEYENNE       CLEAR     53  40  61 W12       30.08S
TORRINGTON     CLEAR     47  45  93 W7        29.96R
PINE BLUFFS    FAIR      43  39  87 SW3       30.02S

$$


USA.gov is the U.S. government's official web portal to all federal, state and local government web resources and services.